Regional Weather Roundup
Issued by NWS Cleveland, OH

Home | Current Version | Previous Version | Text Only | Print | Product List | Glossary Off
Versions: 1 2 3 4 5 6 7 8 9 10 11 12 13 14 15 16 17 18 19 20 21 22 23 24 25 26 27 28 29 30 31 32 33 34 35 36 37 38 39 40 41 42 43 44 45 46 47 48 49 50

000
ASUS41 KCLE 301002
RWRCLE
OHIO REGIONAL WEATHER ROUNDUP
NATIONAL WEATHER SERVICE CLEVELAND, OH
500 AM EST FRI JAN 30 2015

NOTE: "FAIR" INDICATES FEW OR NO CLOUDS BELOW 12,000 FEET WITH NO
SIGNIFICANT WEATHER AND/OR OBSTRUCTIONS TO VISIBILITY.

OHZ001>008-015>018-024>027-034-035-043-044-301100-
   NORTHWEST OHIO

CITY           SKY/WX    TMP DP  RH WIND       PRES   REMARKS
DEFIANCE       CLOUDY    24  14  65 NW20G25   30.28R WCI  10
FINDLAY        CLOUDY    23  13  65 NW16G24   30.23R WCI  10
TOLEDO EXPRESS CLOUDY    22  12  65 NW17G23   30.24R WCI   8
TOLEDO EXEC    CLOUDY    24  13  62 NW17      30.24R WCI  11
LIMA           CLEAR     24  13  62 NW18G30   30.24R WCI  10
$$

OHZ009>014-019>023-028>033-038-089-301100-
   NORTHEAST OHIO

CITY           SKY/WX    TMP DP  RH WIND       PRES   REMARKS
CLE-HOPKINS    LGT SNOW  23  17  78 NW25G35   30.17R BLWGSNOWWCI   7
CLE-LAKEFRONT  LGT SNOW  24  20  84 NW22      30.15R FOG     WCI   9
CUY CO. ARPT   NOT AVBL
LORAIN-ELYRIA  FLURRIES  23  15  71 NW18      30.17R WCI   9
ASHTABULA      LGT SNOW  23  20  88 NW15G22   30.08R FOG     WCI  10
AKRON-CANTON   LGT SNOW  26  19  74 NW13      30.09R WCI  15
WOOSTER        CLOUDY    23  16  74 N20G30    30.13R WCI   8
MANSFIELD      LGT SNOW  21  14  74 NW26G36   30.14R WCI   4
YOUNGSTOWN     LGT SNOW  24  20  84 NW15G22   30.05R VSB 1   WCI  11
$$

OHZ042-051>053-060>062-070>072-077>081-301100-
  SOUTHWEST OHIO

CITY           SKY/WX    TMP DP  RH WIND       PRES   REMARKS
CINC-COVINGTON CLOUDY    33  25  72 NW10G23   30.25R WCI  25
CINC-LUNKEN    CLOUDY    34  24  67 NW10      30.27R WCI  26
HAMILTON       CLOUDY    34  26  72 W10       30.26R WCI  26
DAYTON         CLOUDY    30  23  75 NW20G25   30.23R WCI  17
WRIGHT-PAT AFB FLURRIES  30  25  80 NW15      30.22R WCI  19
DAYTON GENERAL CLOUDY    31  22  69 NW20G25   30.22R WCI  19
WILMINGTON     LGT SNOW  28  24  85 NW13      30.20R FOG     WCI  17
$$

OHZ036-037-039>041-045>050-054>059-063>069-073>076-082>088-301100-
  CENTRAL AND SOUTHEAST OHIO

CITY           SKY/WX    TMP DP  RH WIND       PRES   REMARKS
COLUMBUS       CLOUDY    28  23  81 NW20G29   30.17R WCI  15
OSU AIRPORT    FLURRIES  28  19  69 NW22G31   30.17R WCI  14
BOLTON FIELD   NOT AVBL
RICKENBACK AFB NOT AVBL
NEWARK         LGT SNOW  30  25  81 N12G28    30.15R WCI  20
MARION         MOCLDY    24  16  71 N20G25    30.19R WCI  10
LANCASTER      CLOUDY    31  24  75 NW24G32   30.15R WCI  17
ZANESVILLE     LGT SNOW  29  23  78 NW9G20    30.12R WCI  20
NEW PHILLY     CLOUDY    29  18  63 NW16G24   30.12R WCI  17
$$


USA.gov is the U.S. government's official web portal to all federal, state and local government web resources and services.